STARLINK-5337 (55284 NORAD) Tracking and Keplerian Element Data

This shows tracking and keplerian element data for the satellite.

Feedback or suggestion? Click here.




ElementValue
Catalog55284
NameSTARLINK-5337
Epoch Orbit1705
Epoch Day127.06291698
Epoch Year2023
RAAN140.5095
Inclination69.9983
Eccentricity0.0003417
Argument of Perigee267.2641
Mean Anonmoly92.8127
Mean Motion14.98331285
Decay Rate3.69E-06
L11 55284U 23010R 23127.06291698 .00000369 00000+0 38681-4 0 9993
L22 55284 69.9983 140.5095 0003417 267.2641 92.8127 14.98331285 17053



Live tracking and technical data element details for STARLINK-5337 (NORAD 55284). STARLINK-5337 can be tracked NOW for your location showing map with azimuth and elevation plus other details from your city location.







IsCatalogInMostPopularTable: catalog: 55284, numindb: 3
Update: records affected: 1



GetName: 55284 STARLINK-5337

Hit Count: updated at: Mon, 05 Jun 2023 20:44:36 GMT